Weather History for Aurora, OR

Change the Weather History Date:

Thursday, January 17, 2013

  Actual Average Record
Temperature  
Mean Temperature 32 °F -  
Max Temperature 38 °F - 59 °F (2005)
Min Temperature 28 °F - 26 °F (2008)
Degree Days  
Heating Degree Days 32    
Month to date heating degree days 488  
Since 1 July heating degree days 2147  
Cooling Degree Days 0    
Month to date cooling degree days 0  
Year to date cooling degree days 0  
Moisture  
Dew Point 30 °F    
Average Humidity 91    
Maximum Humidity 100    
Minimum Humidity 82    
Precipitation  
Precipitation 0.00 in - 1.55 in (2015)
Month to date precipitation 0.54  
Year to date precipitation 0.54  
Sea Level Pressure  
Sea Level Pressure 30.42 in    
Wind  
Wind Speed 2 mph (ESE)    
Max Wind Speed 6 mph    
Max Gust Speed 9 mph    
Visibility 6 miles    
Events Fog    
T = Trace of Precipitation, MM = Missing Value Source: NWS Daily Summary

Daily Weather History Graph

Daily Weather History Graph

Search for Another Location

Airport:

Trip Planner

Search our weather history database for the weather conditions in past years. The results will help you decide how hot, cold, wet, or windy it might be!

Date:

Astronomy

Jan. 17, 2013 Rise Set
Actual Time 7:45 AM PST 4:58 PM PST
Civil Twilight 7:12 AM PST 5:30 PM PST
Nautical Twilight 6:35 AM PST 6:07 PM PST
Astronomical Twilight 6:00 AM PST 6:42 PM PST
Moon 10:33 AM PST (1/17) No Moon Set
Length of Visible Light 10h 18m
Length of Day
9h 12m
Waxing Crescent, 39% of the Moon is Illuminated
Jan 17
Waxing Crescent
Jan 18
First Quarter
Jan 26
Full
Feb 3
Last Quarter
Feb 9
New

Hourly Weather History & Observations

Time (PST) Temp. Windchill Dew Point Humidity Pressure Visibility Wind Dir Wind Speed Gust Speed Precip Events Conditions
12:53 AM 35.1 °F 32.2 °F 32.0 °F 89% 30.51 in 10.0 mi NNE 3.5 mph - N/A   Overcast
1:53 AM 34.0 °F 31.0 °F 30.9 °F 89% 30.50 in 10.0 mi ENE 3.5 mph - N/A   Overcast
4:19 AM 32.0 °F - 30.2 °F 93% 30.48 in 10.0 mi Calm Calm - N/A   Scattered Clouds
4:53 AM 30.0 °F - 28.9 °F 96% 30.48 in 7.0 mi Calm Calm - N/A   Mostly Cloudy
5:53 AM 30.9 °F - 30.0 °F 96% 30.47 in 9.0 mi Calm Calm - N/A   Overcast
6:53 AM 32.0 °F - 30.0 °F 92% 30.47 in 9.0 mi Calm Calm - N/A   Overcast
7:53 AM 30.9 °F 27.5 °F 30.0 °F 96% 30.47 in 7.0 mi NE 3.5 mph - N/A   Overcast
8:53 AM 30.9 °F - 30.0 °F 96% 30.47 in 5.0 mi Calm Calm - N/A   Overcast
9:53 AM 30.9 °F 27.5 °F 30.0 °F 96% 30.48 in 4.0 mi ENE 3.5 mph - N/A   Overcast
10:48 AM 32.0 °F - 30.2 °F 93% 30.46 in 5.0 mi Calm Calm - N/A   Overcast
10:53 AM 32.0 °F - 30.0 °F 92% 30.47 in 5.0 mi Calm Calm - N/A   Overcast
11:53 AM 34.0 °F 31.0 °F 30.0 °F 85% 30.44 in 7.0 mi East 3.5 mph - N/A   Mostly Cloudy
12:06 PM 35.6 °F - 30.2 °F 81% 30.42 in 8.0 mi Calm Calm - N/A   Partly Cloudy
12:53 PM 36.0 °F 33.3 °F 30.9 °F 82% 30.41 in 10.0 mi SSE 3.5 mph - N/A   Clear
1:53 PM 37.0 °F 32.4 °F 32.0 °F 82% 30.38 in 10.0 mi SE 5.8 mph - N/A   Clear
2:53 PM 37.9 °F - 32.0 °F 79% 30.38 in 10.0 mi Calm Calm - N/A   Clear
3:53 PM 37.0 °F 33.3 °F 32.0 °F 82% 30.35 in 10.0 mi SSE 4.6 mph - N/A   Clear
4:53 PM 34.0 °F - 30.9 °F 89% 30.35 in 10.0 mi Calm Calm - N/A   Clear
5:53 PM 33.1 °F 28.7 °F 30.9 °F 92% 30.35 in 9.0 mi SE 4.6 mph - N/A   Clear
6:37 PM 30.2 °F 25.4 °F 30.2 °F 100% 30.34 in 0.8 mi ESE 4.6 mph - N/A   Mist
6:53 PM 30.0 °F - 30.0 °F 100% 30.35 in 0.2 mi Calm Calm - N/A Fog Light Freezing Fog
7:53 PM 30.0 °F - 30.0 °F 100% 30.35 in 0.2 mi Calm Calm - N/A Fog Light Freezing Fog
8:53 PM 28.9 °F - 28.9 °F 100% 30.36 in 0.2 mi Calm Calm - N/A Fog Light Freezing Fog
9:53 PM 28.9 °F - 28.9 °F 100% 30.36 in 0.2 mi Calm Calm - N/A Fog Light Freezing Fog
10:53 PM 28.0 °F 24.2 °F 28.0 °F 100% 30.35 in 0.2 mi South 3.5 mph - N/A Fog Light Freezing Fog
11:53 PM 28.0 °F - 28.0 °F 100% 30.35 in 0.2 mi Calm Calm - N/A Fog Light Freezing Fog